Location: La Pernelle
(49.6188°N, 1.2999°W)
Time: 02:44:58
(UTC+00:00)

SL-23 DEB - Visible Passes

Search period start: 17 October 2021 00:00
Search period end: 27 October 2021 00:00
Orbit: 425 x 3623 km, 51.5° (Epoch: 16 October)

Date Brightness Start Highest point End Pass type
(mag) Time Alt. Az. Time Alt. Az. Time Alt. Az.
17 Oct 7.9 17:16:42 10° W 17:36:01 85° N 17:57:26 10° E visible
17 Oct 7.8 19:33:08 10° WNW 19:54:20 74° SW 20:06:15 33° SE visible
17 Oct 8.1 21:50:30 10° WNW 22:08:53 38° WSW 22:14:02 34° SW visible
18 Oct 7.8 18:56:05 10° WNW 19:17:02 80° SSW 19:31:56 24° SE visible
18 Oct 8.0 21:13:04 10° WNW 21:32:25 44° WSW 21:39:44 34° SSW visible
18 Oct 8.8 23:35:38 10° WNW 23:43:14 13° W 23:47:32 12° WSW visible
19 Oct 7.9 18:19:07 10° WNW 18:39:37 84° SSW 18:57:43 16° ESE visible
19 Oct 8.0 20:35:46 10° WNW 20:55:48 51° SW 21:05:32 32° S visible
19 Oct 8.7 22:55:56 10° WNW 23:07:27 18° WSW 23:13:20 15° WSW visible
20 Oct 7.9 17:42:11 10° WNW 18:02:07 88° SSW 18:22:59 10° ESE visible
20 Oct 8.0 19:58:35 10° WNW 20:18:59 57° SW 20:31:27 26° SSE visible
20 Oct 8.6 22:17:23 10° WNW 22:31:30 23° WSW 22:39:15 17° SW visible
21 Oct 7.9 17:05:20 10° WNW 17:24:34 89° NNE 17:45:59 10° ESE visible
21 Oct 8.0 19:21:30 10° WNW 19:42:01 63° SW 19:57:29 19° SSE visible
21 Oct 8.5 21:39:22 10° WNW 21:55:24 28° WSW 22:05:19 18° SSW visible
22 Oct 8.0 18:44:29 10° WNW 19:04:55 69° SW 19:23:41 12° SE visible
22 Oct 8.5 21:01:42 10° WNW 21:19:08 34° WSW 21:31:32 17° SSW visible
23 Oct 8.0 18:07:33 10° WNW 18:27:40 75° SW 18:47:50 10° SE visible
23 Oct 8.5 20:24:15 10° WNW 20:42:42 40° WSW 20:57:56 13° S visible
23 Oct 9.1 22:50:42 10° W 22:53:18 10° W 22:55:52 10° WSW visible
24 Oct 8.0 17:30:40 10° WNW 17:50:19 80° SSW 18:11:08 10° SE visible
24 Oct 8.4 19:46:59 10° WNW 20:06:06 46° SW 20:23:30 10° S visible
24 Oct 9.0 22:08:16 10° WNW 22:17:32 15° W 22:26:13 10° SW visible
25 Oct 8.0 16:53:51 10° WNW 17:12:53 85° SSW 17:34:16 10° ESE visible
25 Oct 8.3 19:09:51 10° WNW 19:29:19 52° SW 19:47:40 10° SSE visible
25 Oct 9.0 21:29:08 10° WNW 21:41:36 19° WSW 21:53:10 10° SW visible
26 Oct 8.2 18:32:49 10° WNW 18:52:25 58° SW 19:11:36 10° SSE visible
26 Oct 8.9 20:50:52 10° WNW 21:05:31 24° WSW 21:19:06 10° SSW visible
